CAPE
391 477 765 412 227 120 62 19 0 0 0 0 0 0 0 0 0 0 1 2 3 4 9 0 0 0 0 0 0 0 0 0 0 0 0 0 0 0 0 0 0 0 0
234 386 568 538 296 168 85 32 9 0 0 0 0 0 0 0 0 0 0 0 1 2 4 0 0 0 0 0 0 0 0 0 0 0 0 0 0 0 0 0 0 0 0
82 382 333 256 292 242 107 18 12 0 0 0 0 0 0 0 0 0 3 6 1 1 0 0 0 0 0 0 0 0 0 0 0 0 0 0 0 0 0 0 0 0 0
20 243 243 227 218 280 276 86 31 4 0 8 27 0 0 0 0 2 42 11 3 1 0 0 0 0 0 0 0 0 0 0 0 0 0 0 0 0 0 0 0 0 0
0 68 241 228 197 215 304 235 142 89 59 28 31 10 1 0 0 0 0 0 1 1 0 0 0 0 0 0 0 0 0 0 0 0 0 0 0 0 0 0 0 0 0
0 0 7 238 151 104 127 99 260 167 118 87 29 24 8 0 0 0 0 0 0 1 0 0 0 0 0 0 0 0 0 0 0 0 0 0 0 0 0 0 0 0 0
0 0 0 0 32 0 0 0 181 267 164 70 35 21 21 0 0 0 0 0 0 0 0 0 0 0 0 0 0 0 0 0 0 0 0 0 0 0 0 0 0 0 0
0 0 0 0 7 10 57 0 83 186 165 76 45 14 9 0 0 0 0 0 0 0 0 0 0 0 0 0 0 0 0 0 0 0 0 0 0 0 0 0 0 0 0
0 0 0 4 28 32 162 179 271 219 146 53 19 15 0 0 0 0 0 0 0 0 0 0 0 0 0 0 0 0 0 0 0 0 0 0 0 0 0 0 0 0 0
0 0 0 82 179 91 152 258 233 208 199 100 27 0 0 0 0 0 0 0 0 0 0 0 0 0 0 0 0 0 0 0 0 0 0 0 0 0 0 0 0 0 0
0 0 0 55 279 312 199 108 142 180 35 59 33 1 0 0 0 0 0 0 0 0 0 0 0 0 0 0 0 0 0 0 0 0 0 0 0 0 0 0 0 0 0
0 0 0 88 357 488 364 197 91 164 162 87 18 0 0 0 0 0 0 0 0 0 0 0 0 0 0 0 0 0 0 0 0 0 0 0 0 0 0 0 0 0 0
0 3 150 355 426 422 375 307 296 230 169 145 42 0 0 0 0 0 0 0 0 0 0 0 0 0 0 0 0 0 0 0 0 0 0 0 0 0 0 0 0 0 0
2 6 318 342 398 414 476 367 292 263 154 78 15 0 0 0 0 0 0 0 0 0 0 0 0 0 0 0 0 0 0 0 0 0 0 0 0 0 0 0 0 0 0
6 6 5 352 495 365 419 368 259 39 66 40 0 0 0 0 0 0 0 0 0 0 0 0 0 0 0 0 0 0 0 0 0 0 0 0 0 0 0 0 0 0 0
11 9 6 3 183 481 425 284 217 28 35 16 2 1 0 0 0 0 0 0 0 0 0 0 0 0 0 0 0 0 0 0 0 0 0 0 0 0 0 0 0 0 0
17 14 12 8 5 5 68 237 82 86 73 31 2 0 1 0 0 0 0 0 0 0 0 0 0 0 0 0 0 0 0 0 0 0 0 0 0 0 0 0 0 0 0
12 11 15 8 5 5 1 15 109 57 86 13 0 0 0 0 0 0 0 0 0 0 0 0 0 0 0 0 0 0 0 0 0 0 0 0 0 0 0 0 0 0 0
27 14 13 14 7 3 3 1 168 172 68 42 0 0 0 0 0 0 0 0 0 0 0 0 0 0 0 0 0 0 0 0 0 0 0 0 0 0 0 0 0 0 0
8 9 8 7 4 4 2 0 1 1 71 11 0 0 0 0 0 0 0 0 0 0 0 0 0 0 0 0 0 0 0 0 0 0 0 0 0 0 0 0 0 0 0
3 5 5 6 8 6 3 2 0 1 2 1 1 0 0 0 0 0 0 0 0 0 0 0 0 0 0 0 0 0 0 0 0 0 0 0 0 0 0 0 0 0 0
2 3 3 5 4 7 3 3 3 2 2 2 4 1 1 0 0 0 0 0 0 0 0 0 0 0 0 0 0 0 0 0 0 0 0 0 0 0 0 0 0 0 0
2 1 0 3 2 4 5 5 4 2 4 1 1 1 1 1 0 0 0 0 0 0 0 0 0 0 0 0 0 0 0 0 0 0 0 0 0 0 0 0 0 0 0
2 1 0 0 1 2 2 4 3 2 4 1 3 1 0 0 0 0 0 0 0 0 0 0 0 0 0 0 0 0 0 0 0 0 0 0 0 0 0 0 0 0 0
1 0 0 0 1 0 1 3 4 3 3 1 3 1 1 1 0 0 0 0 0 0 0 0 0 0 0 0 0 0 0 0 0 0 0 0 0 0 0 0 0 0 0
0 0 0 0 1 1 1 1 4 3 2 1 2 1 2 0 0 1 0 1 0 0 0 0 0 0 0 0 0 0 0 0 0 0 0 0 0 0 0 0 0 0 0
CIN
-120 -143 -77 -175 -176 -194 -168 -143 -0 -0 -0 -0 -0 -0 -0 -0 -0 -0 -12 -0 -0 -0 -3 -0 -0 -0 -0 -0 -0 -0 -0 -0 -0 -0 -0 -0 -0 -0 -0 -0 -0 -0 -0
-117 -128 -80 -59 -116 -164 -202 -168 -143 -0 -0 -0 -0 -0 -0 -0 -0 -0 -0 -0 -0 -0 -0 -0 -0 -0 -0 -0 -0 -0 -0 -0 -0 -0 -0 -0 -0 -0 -0 -0 -0 -0 -0
-187 -96 -95 -98 -107 -123 -167 -216 -190 -0 -0 -0 -0 -0 -0 -0 -0 -0 -0 -36 -0 -0 -0 -0 -0 -0 -0 -0 -0 -0 -0 -0 -0 -0 -0 -0 -0 -0 -0 -0 -0 -0 -0
-295 -120 -126 -97 -106 -108 -147 -184 -145 -147 -0 -221 -71 -0 -0 -0 -0 -102 -83 -127 -66 -0 -0 -0 -0 -0 -0 -0 -0 -0 -0 -0 -0 -0 -0 -0 -0 -0 -0 -0 -0 -0 -0
-0 -191 -135 -149 -155 -134 -107 -133 -112 -91 -130 -179 -148 -176 -20 -0 -0 -0 -0 -0 -49 -0 -0 -0 -0 -0 -0 -0 -0 -0 -0 -0 -0 -0 -0 -0 -0 -0 -0 -0 -0 -0 -0
-0 -0 -110 -174 -183 -202 -133 -165 -74 -113 -80 -138 -159 -159 -181 -0 -0 -0 -0 -0 -0 -0 -0 -0 -0 -0 -0 -0 -0 -0 -0 -0 -0 -0 -0 -0 -0 -0 -0 -0 -0 -0 -0
-0 -0 -0 -0 -242 -0 -0 -0 -138 -71 -97 -149 -148 -204 -91 -0 -0 -0 -0 -0 -0 -0 -0 -0 -0 -0 -0 -0 -0 -0 -0 -0 -0 -0 -0 -0 -0 -0 -0 -0 -0 -0 -0
-0 -0 -0 -0 -236 -160 -255 -0 -239 -129 -127 -183 -177 -156 -131 -0 -92 -0 -0 -0 -0 -0 -0 -0 -0 -0 -0 -0 -0 -0 -0 -0 -0 -0 -0 -0 -0 -0 -0 -0 -0 -0 -0
-0 -0 -0 -45 -399 -328 -143 -164 -170 -199 -193 -257 -98 -108 -1 -0 -0 -0 -0 -0 -0 -0 -0 -0 -0 -0 -0 -0 -0 -0 -0 -0 -0 -0 -0 -0 -0 -0 -0 -0 -0 -0 -0
-0 -0 -0 -293 -250 -325 -264 -164 -185 -217 -228 -155 -94 -0 -0 -0 -52 -0 -0 -0 -0 -0 -0 -0 -0 -0 -0 -0 -0 -0 -0 -0 -0 -0 -0 -0 -0 -0 -0 -0 -0 -0 -0
-0 -0 -0 -380 -217 -228 -263 -338 -242 -192 -303 -131 -91 -20 -0 -0 -0 -0 -0 -0 -0 -0 -0 -0 -0 -0 -0 -0 -0 -0 -0 -0 -0 -0 -0 -0 -0 -0 -0 -0 -0 -0 -0
-0 -0 -0 -411 -158 -114 -140 -193 -282 -173 -155 -99 -174 -0 -0 -0 -0 -0 -0 -0 -0 -0 -0 -0 -0 -0 -0 -0 -0 -0 -0 -0 -0 -0 -0 -0 -0 -0 -0 -0 -0 -0 -0
-0 -114 -342 -171 -115 -123 -145 -170 -158 -171 -152 -131 -88 -11 -0 -0 -0 -0 -0 -0 -0 -0 -0 -0 -0 -0 -0 -0 -0 -0 -0 -0 -0 -0 -0 -0 -0 -0 -0 -0 -0 -0 -0
-0 -86 -123 -121 -101 -94 -68 -123 -109 -106 -127 -111 -83 -0 -0 -0 -0 -0 -0 -0 -0 -0 -0 -0 -0 -0 -0 -0 -0 -0 -0 -0 -0 -0 -0 -0 -0 -0 -0 -0 -0 -0 -0
-0 -0 -0 -98 -65 -76 -29 -27 -36 -180 -145 -134 -33 -0 -0 -0 -0 -0 -0 -0 -0 -0 -0 -0 -0 -0 -0 -0 -0 -0 -0 -0 -0 -0 -0 -0 -0 -0 -0 -0 -0 -0 -0
-0 -0 -0 -0 -150 -24 -13 -20 -24 -132 -133 -169 -0 -0 -0 -0 -0 -0 -0 -0 -0 -0 -0 -0 -0 -0 -0 -0 -0 -0 -0 -0 -0 -0 -0 -0 -0 -0 -0 -0 -0 -0 -0
-0 -0 -0 -0 -0 -0 -96 -4 -69 -61 -107 -118 -0 -0 -0 -0 -0 -0 -0 -0 -0 -0 -0 -0 -0 -0 -0 -0 -0 -0 -0 -0 -0 -0 -0 -0 -0 -0 -0 -0 -0 -0 -0
-0 -0 -0 -0 -0 -0 -0 -49 -14 -42 -37 -103 -0 -0 -0 -0 -0 -0 -0 -0 -0 -0 -0 -0 -0 -0 -0 -0 -0 -0 -0 -0 -0 -0 -0 -0 -0 -0 -0 -0 -0 -0 -0
-0 -0 -0 -0 -0 -0 -0 -0 -4 -0 -13 -8 -0 -0 -0 -0 -0 -0 -0 -0 -0 -0 -0 -0 -0 -0 -0 -0 -0 -0 -0 -0 -0 -0 -0 -0 -0 -0 -0 -0 -0 -0 -0
-0 -0 -0 -0 -0 -0 -0 -0 -0 -0 -3 -10 -0 -0 -1 -0 -0 -0 -0 -0 -0 -0 -0 -0 -0 -0 -0 -0 -0 -0 -0 -0 -0 -0 -0 -0 -0 -0 -0 -0 -0 -0 -0
-0 -0 -0 -0 -0 -0 -0 -0 -0 -0 -0 -0 -0 -1 -0 -0 -0 -0 -0 -0 -0 -0 -0 -0 -0 -0 -0 -0 -0 -0 -0 -0 -0 -0 -0 -0 -0 -0 -0 -0 -0 -0 -0
-0 -0 -0 -0 -0 -0 -0 -0 -0 -0 -0 -0 -0 -0 -0 -0 -0 -0 -0 -0 -0 -0 -0 -0 -0 -0 -0 -0 -0 -0 -0 -0 -0 -0 -0 -0 -0 -0 -0 -0 -0 -0 -0
-0 -0 -0 -0 -0 -0 -0 -0 -0 -0 -0 -0 -2 -0 -0 -0 -0 -0 -0 -0 -0 -0 -0 -0 -0 -0 -0 -0 -0 -0 -0 -0 -0 -0 -0 -0 -0 -0 -0 -0 -0 -0 -0
-0 -0 -0 -0 -0 -0 -0 -0 -0 -0 -0 -0 -0 -0 -0 -0 -0 -0 -0 -0 -0 -0 -0 -0 -0 -0 -0 -0 -0 -0 -0 -0 -0 -0 -0 -0 -0 -0 -0 -0 -0 -0 -0
-0 -0 -0 -0 -0 -0 -0 -0 -0 -0 -0 -0 -0 -0 -0 -0 -0 -0 -0 -0 -0 -0 -0 -0 -0 -0 -0 -0 -0 -0 -0 -0 -0 -0 -0 -0 -0 -0 -0 -0 -0 -0 -0
-0 -0 -0 -0 -0 -0 -0 -0 -0 -0 -0 -0 -0 -0 -0 -0 -0 -0 -0 -0 -0 -0 -0 -0 -0 -0 -0 -0 -0 -0 -0 -0 -0 -0 -0 -0 -0 -0 -0 -0 -0 -0 -0
Wind_Speed
12 8 13 19 19 18 18 18 16 12 9 6 6 6 8 6 5 7 10 12 11 13 12 9 10 9 9 10 12 10 12 4 6 6 4 3 3 3 3 3 4 5 5
6 8 10 14 19 21 22 21 19 16 10 7 6 4 7 5 7 7 8 13 12 14 12 12 11 11 9 11 12 13 6 3 7 5 3 2 2 2 2 3 3 4 3
11 12 13 14 19 22 23 22 21 17 14 7 4 3 4 3 3 6 8 10 13 15 13 12 11 11 10 11 12 11 9 9 4 9 5 3 3 3 1 2 2 4 2
9 13 18 17 16 20 20 20 18 18 18 23 11 13 10 10 8 7 8 9 13 15 14 12 12 12 9 11 11 10 7 10 8 1 1 1 5 4 2 1 2 3 4
10 14 18 21 18 16 17 21 23 21 21 20 22 16 12 8 4 6 8 11 9 13 14 13 13 11 10 12 13 9 8 9 6 6 3 2 3 3 4 3 2 0 2
10 12 16 18 18 14 14 14 21 21 18 16 16 16 20 12 9 10 9 8 8 8 12 13 13 12 11 12 11 11 12 11 6 7 4 4 4 4 4 4 2 3 3
8 11 13 15 16 17 13 14 16 18 18 18 19 18 17 16 17 15 12 10 8 7 11 13 12 11 11 12 11 12 10 10 8 11 4 3 3 4 3 4 3 3 2
8 11 15 16 18 20 22 21 20 18 18 15 16 16 21 13 13 15 12 10 11 10 12 12 12 12 12 11 11 9 9 8 8 8 5 4 4 4 4 5 6 2 1
13 13 14 15 18 19 19 22 22 21 20 22 18 15 12 16 15 16 13 12 10 9 12 13 13 13 13 13 12 9 10 8 7 7 6 4 3 4 4 4 5 6 5
19 18 14 17 16 18 19 18 19 21 17 18 17 17 16 16 15 15 15 13 11 12 13 13 13 13 13 12 13 9 8 11 6 5 6 5 3 4 4 4 4 2 4
23 23 15 17 17 18 18 20 17 17 15 16 15 17 16 15 13 15 14 15 14 14 14 15 14 14 14 12 12 11 11 12 9 6 8 8 6 4 4 3 3 4 3
24 17 13 15 15 17 17 19 18 17 16 16 12 14 13 13 14 14 14 14 15 14 14 14 14 13 13 13 14 13 12 13 11 9 8 8 5 6 5 4 6 5 4
23 5 6 11 15 15 17 19 19 18 15 14 15 14 14 14 16 15 15 14 14 14 12 13 14 14 13 13 12 13 12 11 11 11 11 10 8 6 4 4 6 4 3
20 19 2 7 9 11 14 16 16 15 16 15 16 17 18 18 17 15 14 15 14 15 14 13 14 13 13 13 12 12 11 10 9 9 9 10 11 10 8 6 7 5 5
21 19 16 4 8 11 11 11 13 13 15 16 17 19 19 17 15 14 15 13 14 14 14 13 12 12 12 10 12 11 11 11 8 7 7 7 9 12 11 7 7 7 5
20 19 18 17 9 7 11 13 11 12 13 13 15 14 16 16 15 13 14 14 13 13 13 13 13 12 9 13 15 13 11 10 11 10 7 6 9 9 13 11 13 13 10
20 19 17 15 15 11 3 8 13 12 13 15 13 12 14 15 15 14 12 14 14 12 13 12 12 12 9 16 17 15 9 10 10 10 9 6 5 8 7 7 11 10 10
18 17 14 14 14 13 11 5 6 12 12 14 14 13 15 16 14 15 15 13 12 14 14 12 12 10 8 16 16 15 9 7 9 10 10 10 9 9 9 8 7 7 7
15 15 14 13 13 15 15 6 8 8 14 15 14 14 15 15 14 14 15 13 11 10 12 11 12 12 9 16 17 15 8 7 8 7 8 10 9 11 14 10 8 6 5
16 16 17 15 17 18 15 11 11 6 15 14 15 15 16 17 18 16 14 11 11 11 9 9 10 12 11 16 18 15 8 7 6 5 6 11 11 15 16 11 10 9 7
19 18 18 18 17 16 14 14 12 13 13 11 9 14 16 17 15 15 11 11 9 9 9 9 6 9 10 11 18 17 10 8 7 7 6 6 13 16 18 13 10 10 8
24 22 19 18 17 16 17 18 16 15 14 10 12 14 14 12 11 15 11 12 11 10 7 7 5 4 6 11 15 19 12 12 10 9 7 7 16 16 16 12 9 12 6
21 18 18 19 19 21 20 19 18 17 17 4 11 10 10 11 12 13 12 10 10 9 9 8 7 6 5 5 14 18 16 16 9 7 10 14 18 17 13 14 13 10 5
21 21 23 24 22 21 20 19 21 21 17 18 17 1 10 9 9 8 9 9 9 8 8 8 7 6 7 8 7 8 10 7 6 5 5 5 7 8 7 4 7 6 7
17 19 18 19 20 20 21 21 22 21 17 19 16 15 6 2 5 8 8 8 7 9 10 9 8 8 7 8 7 10 9 9 7 7 4 3 3 5 5 4 6 7 6
18 19 20 18 20 21 21 22 21 19 17 16 14 14 11 6 4 4 7 16 7 9 9 9 6 3 7 11 12 13 13 15 16 4 4 6 7 7 8 7 7 7 9
Wind_Direction
240 188 198 178 175 173 174 179 174 171 159 154 164 174 181 181 185 186 181 174 173 170 171 151 149 151 153 148 141 131 131 96 119 108 85 57 77 80 85 90 94 83 78
197 187 180 185 180 176 180 182 184 165 158 174 175 167 184 189 188 188 187 184 173 172 173 159 159 155 141 143 148 150 134 96 168 129 115 129 47 42 74 107 111 107 89
202 200 191 191 191 188 183 181 183 172 155 167 163 115 102 69 133 186 190 190 181 176 172 164 161 154 152 158 158 156 149 156 203 178 139 139 179 137 26 115 124 142 113
208 204 200 193 198 198 186 183 179 178 181 166 188 192 193 195 196 189 192 189 181 176 170 164 161 159 156 160 164 164 157 157 172 116 232 77 142 155 142 46 111 136 145
213 204 203 202 203 198 192 183 178 184 186 192 179 177 195 194 157 160 181 188 176 177 169 164 160 164 162 165 165 158 159 170 158 170 153 106 63 96 135 158 162 114 163
219 211 208 204 203 194 191 187 182 180 184 185 180 184 187 185 166 165 179 185 181 170 169 166 167 167 163 164 171 169 168 174 173 182 177 165 160 175 142 122 140 167 190
257 217 204 197 193 188 180 188 177 181 186 185 185 178 202 183 181 172 180 169 180 183 172 170 169 174 171 170 171 169 175 177 180 183 189 181 159 134 122 113 131 148 175
294 250 216 199 190 193 186 187 184 181 186 182 203 199 190 191 189 178 179 179 185 181 170 176 175 173 169 168 174 178 181 181 189 184 179 192 175 160 154 147 143 123 157
304 281 238 209 194 191 186 181 181 187 189 187 187 184 184 192 190 178 180 177 174 172 170 173 174 173 172 170 173 179 181 177 188 190 179 189 196 192 171 159 161 149 166
302 282 246 215 200 193 185 182 181 178 186 193 191 185 180 190 196 174 173 175 180 169 170 170 174 173 176 174 176 178 180 186 187 176 170 193 192 192 171 173 150 125 139
295 273 239 215 199 195 185 184 183 182 175 186 184 189 184 182 186 186 169 174 174 171 174 176 175 175 175 177 182 183 177 187 180 166 180 195 179 180 175 154 135 145 138
297 247 212 208 188 198 193 189 185 183 179 181 166 187 173 175 191 192 178 169 178 176 175 178 178 176 178 176 184 181 183 185 181 180 174 181 168 176 175 172 178 163 156
342 269 184 194 192 195 196 196 186 183 177 165 179 180 181 182 193 193 180 174 171 171 174 174 178 179 180 180 186 184 177 180 181 175 183 177 166 174 175 180 173 161 146
360 359 107 205 188 199 199 195 188 173 170 173 183 185 184 190 196 194 181 175 171 168 175 180 181 180 178 181 176 174 175 179 181 178 185 174 178 180 179 179 183 160 152
0 351 352 248 175 187 189 187 176 175 170 177 187 183 181 190 188 187 180 169 174 177 174 173 179 175 176 179 174 176 173 178 175 178 183 187 184 181 179 166 177 163 148
347 346 349 350 3 184 181 184 178 180 182 179 195 182 179 177 177 180 178 165 171 172 173 178 175 177 185 172 169 167 173 174 178 185 188 188 173 177 181 179 169 173 163
339 343 348 350 347 350 292 199 178 179 180 190 190 176 174 178 181 176 175 169 175 169 181 179 175 183 182 167 170 164 172 175 182 178 179 182 183 167 179 180 174 177 171
342 341 342 353 355 345 341 295 193 186 188 190 190 176 176 179 176 179 180 176 173 177 179 183 182 178 177 167 168 166 158 170 183 179 178 182 177 182 170 166 176 186 189
344 344 354 1 358 351 340 290 185 190 199 202 190 185 181 175 172 189 180 182 174 178 180 178 174 179 171 170 166 166 159 174 185 178 176 183 176 182 171 167 177 180 194
356 0 4 11 17 357 359 18 24 324 217 193 188 182 183 181 180 181 182 180 178 175 167 171 180 174 165 173 169 170 166 173 173 171 181 185 185 176 177 178 171 187 201
5 1 15 16 10 2 3 17 9 1 328 313 197 184 179 180 179 173 171 167 163 156 159 165 166 172 167 175 175 173 173 179 176 185 183 200 189 182 185 186 179 197 149
8 10 16 13 11 358 16 14 5 338 311 271 221 172 179 168 166 167 165 161 157 159 153 146 157 178 169 167 186 182 180 171 179 194 191 191 184 188 190 186 169 155 143
6 5 15 11 12 10 11 3 353 348 343 264 176 163 165 155 160 164 161 154 162 168 170 178 180 187 185 183 181 188 189 179 185 185 191 179 184 187 191 190 171 158 157
11 5 6 11 9 9 8 2 0 6 4 25 21 168 152 148 163 164 158 159 169 168 177 186 187 186 186 194 177 191 197 183 196 147 150 172 167 179 191 149 167 186 185
13 14 10 7 6 4 7 5 7 7 10 24 14 7 45 126 172 157 167 166 176 186 179 192 189 186 201 207 187 177 180 189 174 119 105 133 157 185 184 183 184 192 191
15 12 7 11 10 8 7 7 10 13 21 25 16 13 12 18 68 51 74 46 83 107 105 128 150 118 108 144 166 178 174 166 151 131 169 194 197 193 194 198 195 198 203